Regional Weather Roundup
Issued by NWS

Home | Current Version | Previous Version | Graphics & Text | Print | Product List | Glossary Off
Versions: 1 2 3 4 5 6 7 8 9 10 11 12 13 14 15 16 17 18 19 20 21 22 23 24 25 26 27 28 29 30 31 32 33 34 35 36 37 38 39 40 41 42 43 44 45 46 47 48 49 50

000
ASUS43 KDMX 021207
RWRIA

WEATHER ROUNDUP FOR IOWA
NATIONAL WEATHER SERVICE DES MOINES IA
700 AM CDT THU JUL 02 2015

NOTE: "FAIR" INDICATES FEW OR NO CLOUDS BELOW 12,000 FEET WITH NO
SIGNIFICANT WEATHER AND/OR OBSTRUCTIONS TO VISIBILITY.

* - THESE STATIONS ARE NOT NWS STATIONS...THUS NOT UNDER NWS
QUALITY CONTROL.  THEY ALSO DO NOT REPORT WEATHER SUCH
AS PRECIPITATION OR FOG.

IAZ001>003-012>014-020>022-031>034-043>046-021300-
   NORTHWEST IOWA

CITY           SKY/WX    TMP DP  RH WIND       PRES   REMARKS
CARROLL *      SUNNY     55  55 100 NE3       29.99R
CHEROKEE *     CLOUDY    56  55  96 E3        30.01R
DENISON *      SUNNY     57  55  94 NE5       29.98R
LE MARS *      SUNNY     57  55  94 CALM      30.01R
ORANGE CITY *  PTSUNNY   55  54  94 E6        30.00S
SHELDON *      CLOUDY    55  55 100 SE7       30.00S
SIOUX CITY     CLOUDY    60  55  83 E3        30.00R
6HR MIN TEMP:  59; 6HR MAX TEMP:  64;

SPENCER        CLOUDY    57  52  83 CALM      30.02R
6HR MIN TEMP:  51; 6HR MAX TEMP:  57;

STORM LAKE *   SUNNY     55  54  94 E6        30.02R
$$

IAZ055>058-069>071-079>083-090>094-021300-
   SOUTHWEST IOWA

CITY           SKY/WX    TMP DP  RH WIND       PRES   REMARKS
ATLANTIC *     PTSUNNY   59  59 100 NE6       29.97R
AUDUBON *      SUNNY     55  54  94 CALM      29.99S
CLARINDA *     CLOUDY    66  63  88 NE6       29.96R
COUNCIL BLFS * PTSUNNY   63  59  88 NE9       29.97R
CRESTON *      MOSUNNY   61  57  88 NE9G15    29.95S
HARLAN  *      MOSUNNY   59  59 100 NE6       30.01R
LAMONI         CLOUDY    63  59  87 NE8       29.94R
6HR MIN TEMP:  63; 6HR MAX TEMP:  66;

RED OAK *      CLOUDY    64  61  88 NE6       29.96R
SHENANDOAH *   CLOUDY    64  63  94 NE6       29.95R
$$

IAZ047>049-059>061-072>074-084-021300-
   CENTRAL IOWA

CITY           SKY/WX    TMP DP  RH WIND       PRES   REMARKS
AMES           MOSUNNY   56  53  90 NE6       29.98S
6HR MIN TEMP:  54; 6HR MAX TEMP:  59;

ANKENY *       SUNNY     55  55 100 NE5       29.97F
CHARITON *     CLOUDY    59  57  94 NE7       29.95S
DES MOINES     PTSUNNY   59  53  80 E9        29.96S
6HR MIN TEMP:  59; 6HR MAX TEMP:  63;

GRINNELL*      MOSUNNY   57  54  92 NE8       29.99S
KNOXVILLE *    SUNNY     59  55  88 NE8       29.95S
MARSHALLTOWN   MOSUNNY   57  54  89 E7        29.99S
6HR MIN TEMP:  54; 6HR MAX TEMP:  57;

PELLA *        SUNNY     57  57 100 NE3       29.98S
PERRY *          N/A     57  54  88 NE3       29.98R
$$

IAZ004>006-015-016-023>025-035-036-021300-
   NORTH CENTRAL IOWA

CITY           SKY/WX    TMP DP  RH WIND       PRES   REMARKS
ALGONA *       SUNNY     54  52  94 NE3       30.02R
CLARION *      SUNNY     55  52  88 E9        30.01S
ESTHERVILLE    PTSUNNY   53  51  93 CALM      30.02S
6HR MIN TEMP:  49; 6HR MAX TEMP:  53;

FORT DODGE *   CLOUDY    54  50  87 E5        30.01S
MASON CITY     MOSUNNY   52  50  93 NE3       30.04F
6HR MIN TEMP:  45; 6HR MAX TEMP:  52;

FOREST CITY *  SUNNY     52  52 100 CALM      30.03S
IOWA FALLS *     N/A     54  52  94 NE5       30.01F
$$

IAZ007>011-017>019-026>030-037>042-050>054-066-021300-
   NORTHEAST IOWA

CITY           SKY/WX    TMP DP  RH WIND       PRES   REMARKS
CEDAR RAPIDS   SUNNY     57  55  93 E8        30.00R
6HR MIN TEMP:  55; 6HR MAX TEMP:  60;

CHARLES CITY * SUNNY     54  54 100 NE6       30.04S
CLINTON *      SUNNY     54  48  82 E5        30.02R
DECORAH *        N/A    N/A N/A N/A MISG        N/A
DUBUQUE        FOG       52  51  97 NE8       30.02S VSB 1/2
6HR MIN TEMP:  51; 6HR MAX TEMP:  57;

MONTICELLO *   SUNNY     54 N/A N/A CALM      30.01R
OELWEIN *      SUNNY     54  52  94 NE5       30.03S
WATERLOO       MOSUNNY   55  52  89 NE3       30.01R
6HR MIN TEMP:  51; 6HR MAX TEMP:  55;

$$

IAZ064-065-067-068-078-021300-
   EAST CENTRAL IOWA

CITY           SKY/WX    TMP DP  RH WIND       PRES   REMARKS
DAVENPORT      SUNNY     55  51  86 NE7       29.99S
6HR MIN TEMP:  53; 6HR MAX TEMP:  62;

IOWA CITY      SUNNY     58  52  80 E6        30.00R
6HR MIN TEMP:  57; 6HR MAX TEMP:  63;

MT. PLEASANT * SUNNY     60  56  85 NE5       29.97S FOG
MUSCATINE *    SUNNY     57  54  88 NE7       29.99R
QUAD CITIES    SUNNY     57  50  77 NE9       29.98S
6HR MIN TEMP:  56; 6HR MAX TEMP:  64;

$$

IAZ062-063-075>077-085>089-095>099-021300-
   SOUTHEAST IOWA

CITY           SKY/WX    TMP DP  RH WIND       PRES   REMARKS
BURLINGTON     SUNNY     59  55  87 NE12      29.95S
6HR MIN TEMP:  59; 6HR MAX TEMP:  68;

FAIRFIELD *    SUNNY     59  55  88 NE9       29.96S FOG
FORT MADISON * PTSUNNY   59  55  88 NE9       29.96F
KEOKUK *       MOSUNNY   61  55  82 E8        29.94S
OSKALOOSA *      N/A     58  56  94 E6        29.98R FOG
CENTERVILLE *  CLOUDY    59  59 100 NE9       29.96R
OTTUMWA        SUNNY     59  57  93 NE8       29.95S
6HR MIN TEMP:  58; 6HR MAX TEMP:  64;

WASHINGTON *   SUNNY     59  57  94 NE9       29.99S FOG
$$

ABBREVIATIONS USED IN REMARKS
   TC - TEMPERATURES IN CELSIUS
  WCI - WIND CHILL INDEX
   HX - HEAT INDEX
  VSB - VISIBILITY
$$




USA.gov is the U.S. government's official web portal to all federal, state and local government web resources and services.